Weather History for Elkins, WV

Change the Weather History Date:

Friday, December 28, 2012

  Actual Average Record
Temperature  
Mean Temperature 32 °F 30 °F  
Max Temperature 37 °F 40 °F 67 °F (1984)
Min Temperature 26 °F 20 °F -2 °F (2000)
Degree Days  
Heating Degree Days 33 35  
Month to date heating degree days 726 903  
Since 1 July heating degree days 2141 2187  
Cooling Degree Days 0 0  
Month to date cooling degree days 0 0  
Year to date cooling degree days 675 475  
Moisture  
Dew Point 24 °F    
Average Humidity 78    
Maximum Humidity 92    
Minimum Humidity 64    
Precipitation  
Precipitation T in 0.10 in 1.50 in (1967)
Month to date precipitation 4.09 2.97  
Year to date precipitation 46.20 45.64  
Snow  
Snow 0.20 in - - ()
Month to date snowfall 5.6  
Since 1 September snowfall 24.0  
Snow Depth T in    
Sea Level Pressure  
Sea Level Pressure 30.08 in    
Wind  
Wind Speed 1 mph (NW)    
Max Wind Speed 9 mph    
Max Gust Speed 12 mph    
Visibility 10 miles    
Events      
T = Trace of Precipitation, MM = Missing Value Source: NWS Daily Summary

Daily Weather History Graph

Daily Weather History Graph

Search for Another Location

Airport:

Trip Planner

Search our weather history database for the weather conditions in past years. The results will help you decide how hot, cold, wet, or windy it might be!

Date:

Astronomy

Dec. 28, 2012 Rise Set
Actual Time 7:37 AM EST 5:05 PM EST
Civil Twilight 7:07 AM EST 5:35 PM EST
Nautical Twilight 6:33 AM EST 6:08 PM EST
Astronomical Twilight 6:01 AM EST 6:41 PM EST
Moon 5:40 PM EST (12/28) 7:30 AM EST (12/28)
Length of Visible Light 10h 27m
Length of Day
9h 28m
Full, 100% of the Moon is Illuminated
Dec 28
Full
Jan 4
Last Quarter
Jan 11
New
Jan 18
First Quarter
Jan 26
Full

Hourly Weather History & Observations

Time (EST) Temp. Windchill Dew Point Humidity Pressure Visibility Wind Dir Wind Speed Gust Speed Precip Events Conditions
12:16 AM 26.6 °F 21.2 °F 21.2 °F 80% 30.07 in 10.0 mi WNW 4.6 mph - N/A   Overcast
12:33 AM 26.6 °F 19.1 °F 23.0 °F 86% 30.06 in 10.0 mi WNW 6.9 mph - N/A   Overcast
12:51 AM 27.0 °F 21.6 °F 21.9 °F 81% 30.14 in 10.0 mi NW 4.6 mph - N/A   Overcast
1:26 AM 26.6 °F 20.0 °F 21.2 °F 80% 30.06 in 10.0 mi NW 5.8 mph - N/A   Overcast
1:51 AM 27.0 °F 20.5 °F 21.9 °F 81% 30.15 in 10.0 mi NW 5.8 mph - N/A   Overcast
2:51 AM 27.0 °F 23.0 °F 21.9 °F 81% 30.17 in 10.0 mi WNW 3.5 mph - 0.00 in   Overcast
3:19 AM 26.6 °F 21.2 °F 21.2 °F 80% 30.09 in 10.0 mi NNW 4.6 mph - N/A   Overcast
3:47 AM 26.6 °F 21.2 °F 21.2 °F 80% 30.08 in 10.0 mi NNW 4.6 mph - N/A   Overcast
3:51 AM 26.1 °F 21.9 °F 21.9 °F 84% 30.17 in 10.0 mi WNW 3.5 mph - N/A   Overcast
4:51 AM 27.0 °F 23.0 °F 21.0 °F 78% 30.17 in 10.0 mi North 3.5 mph - N/A   Overcast
5:51 AM 26.1 °F - 21.0 °F 81% 30.18 in 10.0 mi Calm Calm - N/A   Overcast
6:27 AM 26.6 °F - 21.2 °F 80% 30.11 in 10.0 mi Calm Calm - N/A   Overcast
6:51 AM 27.0 °F - 21.9 °F 81% 30.19 in 10.0 mi Calm Calm - N/A   Overcast
7:51 AM 26.1 °F - 21.9 °F 84% 30.19 in 10.0 mi Calm Calm - N/A   Overcast
8:51 AM 27.0 °F - 21.0 °F 78% 30.17 in 10.0 mi Calm Calm - N/A   Mostly Cloudy
9:06 AM 26.6 °F - 21.2 °F 80% 30.09 in 10.0 mi Calm Calm - N/A   Scattered Clouds
9:51 AM 28.0 °F - 21.9 °F 78% 30.16 in 10.0 mi Calm Calm - N/A   Clear
10:51 AM 28.9 °F 23.9 °F 21.9 °F 75% 30.17 in 10.0 mi SW 4.6 mph - N/A   Clear
11:51 AM 30.0 °F - 21.9 °F 72% 30.13 in 10.0 mi Calm Calm - N/A   Partly Cloudy
12:51 PM 32.0 °F - 24.1 °F 73% 30.11 in 10.0 mi Calm Calm - N/A   Mostly Cloudy
1:51 PM 35.1 °F - 24.1 °F 64% 30.07 in 10.0 mi Calm Calm - N/A   Partly Cloudy
2:51 PM 36.0 °F - 24.1 °F 62% 30.06 in 10.0 mi Calm Calm - N/A   Clear
3:51 PM 36.0 °F 33.3 °F 26.1 °F 67% 30.03 in 10.0 mi North 3.5 mph - N/A   Clear
4:51 PM 32.0 °F - 27.0 °F 82% 30.04 in 10.0 mi Calm Calm - N/A   Clear
5:31 PM 32.0 °F - 28.4 °F 87% 29.97 in 10.0 mi Calm Calm - N/A   Scattered Clouds
5:40 PM 32.0 °F - 28.4 °F 87% 29.97 in 10.0 mi Calm Calm - N/A   Mostly Cloudy
5:51 PM 32.0 °F 28.7 °F 28.0 °F 85% 30.05 in 9.0 mi North 3.5 mph - N/A   Overcast
6:51 PM 32.0 °F - 28.0 °F 85% 30.04 in 9.0 mi Calm Calm - N/A   Mostly Cloudy
7:51 PM 30.2 °F - 28.4 °F 93% 29.96 in 9.0 mi Calm Calm - N/A   Mostly Cloudy
8:17 PM 30.2 °F - 28.4 °F 93% 29.94 in 8.0 mi Calm Calm - N/A   Mostly Cloudy
8:51 PM 30.9 °F - 28.9 °F 92% 30.01 in 8.0 mi Calm Calm - N/A   Clear
9:51 PM 30.2 °F - 28.4 °F 93% 29.91 in 7.0 mi Calm Calm - N/A   Mostly Cloudy
10:22 PM 30.2 °F 26.7 °F 28.4 °F 93% 29.91 in 7.0 mi SW 3.5 mph - N/A   Overcast
10:51 PM 30.9 °F - 28.9 °F 92% 29.97 in 7.0 mi Calm Calm - N/A   Overcast
11:51 PM 30.9 °F - 28.9 °F 92% 29.97 in 6.0 mi Calm Calm - N/A   Overcast